RS34S (SXC3-218 KUZBAS*)

Last updated on Wed Jul 12 2023 00:03:08 GMT+0000 (Coordinated Universal Time)

1 53375U 22096F 23192.41598656 .00021246 00000+0 58288-3 0 9991 2 53375 97.4113 98.4736 0003545 86.1592 274.0057 15.37285485 51385

Satellite not in orbit

RS34S (SXC3-218 KUZBAS*)